Other Public Products
Issued by NWS Grand Forks, ND

Home | Current Version | Previous Version | Graphics & Text | Print | Product List | Glossary On
Versions: 1 2 3 4 5 6 7 8 9 10 11 12 13 14 15 16 17 18 19 20 21 22 23 24 25 26 27 28 29 30 31 32 33 34 35 36 37 38 39 40 41 42 43 44 45 46 47 48 49 50
000
FPUS83 KFGF 232010
OPUFGF
PRAIRIE TO PINES WEATHER ROUNDUP
NATIONAL WEATHER SERVICE EASTERN NORTH DAKOTA/GRAND FORKS ND
300 PM CDT TUE AUG 23 2016

 **SATELLITE DATA USED TO AUGMENT SKY COVER AT AUTOMATED STATIONS**
 *****  WEATHER ACROSS EASTERN NORTH DAKOTA  *****

CITY           SKY/WX    TMP DP  RH WIND       PRES   REMARKS
GRAND FORKS    PTSUNNY   87  69  54 S15G23    29.65S HX  91
GRAND FORKS AF PTSUNNY   80  69  67 SW8       29.66F
GRAND CITY NWS   N/A     84 N/A N/A S10         N/A
BUXTON           N/A     89  72  56 S15G29      N/A  HX  95
DEVILS LAKE    MOSUNNY   78  70  76 SW8       29.68R
FARGO          SUNNY     88  67  49 S25G35    29.68S HX  91
WAHPETON ARPT  CLEAR     86  63  45 S22G30    29.74S
$$

 *****  WEATHER ACROSS CENTRAL AND WESTERN NORTH DAKOTA  *****

CITY           SKY/WX    TMP DP  RH WIND       PRES   REMARKS
JAMESTOWN      CLOUDY    77  69  76 NW20      29.70R
BISMARCK       SUNNY     82  40  22 NW18G36   29.78R
MINOT          SUNNY     80  41  24 W24G37    29.77R
MINOT AFB      SUNNY     77  42  28 NW23G33   29.76R
GARRISON         N/A     80  39  23 NW22G40   29.79R
WILLISTON      MOSUNNY   79  39  23 W21G29    29.84R
DICKINSON      SUNNY     77  29  17 NW18G28   29.86R
HETTINGER      SUNNY     80  34  19 NW24G33   29.89R
$$

 *****  OTHER OBSERVATIONS NORTHEAST NORTH DAKOTA  *****

CITY           SKY/WX    TMP DP  RH WIND       PRES   REMARKS
WALHALLA       NOT AVBL
LANGDON        CLOUDY    81  70  69 W9        29.66R
CAVALIER       FAIR      84  68  58 S12       29.62S
GRAFTON        FAIR      77  68  73 S10G20    29.65F
CANDO          NOT AVBL
FORT TOTTEN      N/A     77  71  83 W6        29.95
ROLLA            N/A     75  61  60 N15G22    29.71R
RUGBY          NOT AVBL
 ***** THE ABOVE OBSERVATIONS ARE NON NWS ARE NOT QUALITY
        CONTROLLED AND MAY MIS-REPORT RAIN FOR SNOW...
$$

 *****  OTHER OBSERVATIONS SOUTHEAST NORTH DAKOTA *****

CITY           SKY/WX    TMP DP  RH WIND       PRES   REMARKS
COOPERSTOWN    NOT AVBL
VALLEY CITY    FAIR      82  70  65 SW16      29.72S
OAKES            N/A    N/A N/A N/A MISG        N/A
GWINNER        FAIR      88  70  55 S21G29    29.72R HX  92
SHEYENNE NWR     N/A     90  64  41 SW21      29.95S HX  91
BUFFALO          N/A     86  61  42 S16G28      N/A
WYNDMERE       NOT AVBL
 ***** THE ABOVE OBSERVATIONS ARE NON NWS ARE NOT QUALITY
       CONTROLLED AND MAY MIS-REPORT RAIN FOR SNOW...
$$

  *****  WEATHER ACROSS NORTHERN MINNESOTA  *****

CITY           SKY/WX    TMP DP  RH WIND       PRES   REMARKS
FLAG ISLAND    CLOUDY    79  68  69 S5        29.68S
WARROAD        MOSUNNY   81  70  69 SE12G17   29.69F
ROSEAU         CLOUDY    84  70  61 S13       29.68S
HALLOCK        CLOUDY    82  66  57 S16       29.64R
THF RVR FALLS  MOSUNNY   86  68  54 S15G21    29.70R
HALSTAD          N/A     89  66  47 S28         N/A  HX  91
FOSSTON        SUNNY     84  64  51 S18G28    29.73S
BAUDETTE       PTSUNNY   79  66  64 SE15G23   29.70F
WASKISH        MOSUNNY   84  70  61 S8        29.73S
CROOKSTON      MOSUNNY   88  66  48 S24G33    29.69R HX  90
$$
  *****  WEATHER ACROSS CENTRAL AND WEST MINNESOTA  *****

CITY           SKY/WX    TMP DP  RH WIND       PRES   REMARKS
BEMIDJI        SUNNY     84  68  57 S16G25    29.77R
PARK RAPIDS    SUNNY     87  68  52 S16       29.79S HX  90
WADENA         SUNNY     81  68  65 S17       29.80S
DETROIT LAKES  SUNNY     82  66  57 SW23G29   29.78R
MOORHEAD       SUNNY     86  66  51 S20G29    29.71R
FERGUS FALLS     N/A    N/A N/A N/A S21       29.78R
ELBOW LAKE     FAIR      82  71  67 S17G24    29.79S HAZE
MORRIS MN      MOSUNNY   86  70  58 S18       29.79S HX  90
STAPLES        SUNNY     82  66  57 S18       29.82S
WHEATON        MOSUNNY   86  70  58 S16G24    29.77S HX  90
$$
  *****  WEATHER ELSEWHERE ACROSS MINNESOTA  *****

CITY           SKY/WX    TMP DP  RH WIND       PRES   REMARKS
DULUTH         MOSUNNY   83  67  58 S20       29.89S
INTRNTL FALLS  PTSUNNY   80  66  62 SE13G20   29.76F
ELY            CLOUDY    82  64  54 S10G16    29.85S
CLOQUET        MOSUNNY   81  64  57 S13G18    29.89S
BRAINERD       MOSUNNY   80  67  64 S14G25    29.85S
HIBBING        SUNNY     81  66  60 S10G18    29.84S
ALEXANDRIA     SUNNY     83  69  62 S23G29    29.84S
SAINT CLOUD    MOSUNNY   82  71  69 S20G29    29.87S
MINNEAPOLIS    PTSUNNY   83  69  62 S15G21    29.90F
$$

  *****  WEATHER ACROSS SOUTH DAKOTA  *****

CITY           SKY/WX    TMP DP  RH WIND       PRES   REMARKS
SIOUX FALLS    CLOUDY    73  68  84 S12       29.82F
BROOKINGS      CLOUDY    75  67  76 S17G25    29.82F
WATERTOWN      SUNNY     80  64  58 S22G37    29.78F
HURON          MOSUNNY   83  68  60 S15G25    29.73S
SISSETON         N/A     86  65  49 S21G30    29.74R
ABERDEEN       SUNNY     87  64  46 S22G33    29.71R
MITCHELL       CLOUDY    78  68  71 S18G26    29.78R
PIERRE         SUNNY     85  57  38 N21G29    29.74S
MOBRIDGE       PTSUNNY   84  53  34 N21G29    29.75R
RAPID CITY     MOSUNNY   82  34  17 NW21G35   29.94R
$$

  *****  SOME WEATHER IN NEARBY STATES *****

CITY           SKY/WX    TMP DP  RH WIND       PRES   REMARKS
GLASGOW MT     PTSUNNY   69  42  37 W31G45    29.89R
GREAT FALLS MT CLOUDY    69  33  26 NW13G22   30.06R
CHEYENNE WY    CLOUDY    79  22  12 NW15G23   30.12R
SCOTTSBLUFF NE SUNNY     88  34  14 NW14G22   29.97S
OMAHA NE       CLOUDY    82  72  71 S25       29.87F
DES MOINES IA  CLOUDY    80  70  71 S16G24    29.97F
DAVENPORT IA   PTSUNNY   79  65  62 S14G23    30.10F
CHICAGO IL     MOSUNNY   79  60  52 S18       30.14F
EAU CLAIRE WI  MOSUNNY   84  65  52 S20G25    29.97S
LA CROSSE WI   PTSUNNY   85  72  65 S20       30.00F HX  91
$$

  *****  SOME NATIONAL WEATHER *****

CITY           SKY/WX    TMP DP  RH WIND       PRES   REMARKS
LA GUARDIA NY  MOSUNNY   83  50  31 VRB7G18   30.25F
RALEIGH NC     MOSUNNY   88  58  36 E8        30.26F
ATLANTA GA     PTSUNNY   90  67  46 N9        30.21F HX  93
NEW ORLEANS LA MOSUNNY   96  74  48 N5        30.14F HX 107
OKLAHOMA CITY  PTSUNNY   88  72  58 S20       30.01F HX  94
ALBUQUERQUE NM TSTM      68  56  65 W20G41    30.21R
SALT LAKE CITY PTSUNNY   87  34  15 NW14      30.07F
LOS ANGELES CA SUNNY     75  63  66 W13       30.04S
BOISE ID       SUNNY     76  28  17 W10       30.10F
SEATTLE WA     MOSUNNY   75  50  41 N9G16     30.21S
$$

*** WEATHER ACROSS MANITOBA...SASKATCHEWAN AND ONTARIO ***
                ***ONTARIO***

CITY           SKY/WX    TMP DP  RH WIND       PRES   REMARKS
GERALDTON      PTSUNNY   81  66  61 S14       29.91S
THUNDER BAY    PTSUNNY   79  64  61 S10G18    29.87S
SIOUX LOOKOUT  PTSUNNY   79  70  73 SE10G18   29.81F
TORONTO        MOSUNNY   82  55  39 W14G22    30.20F
BIG TROUT LK   SUNNY     64  52  63 SW7       29.96R
PICKLE LAKE    PTSUNNY   75  59  57 E8        29.88F
DRYDEN         PTSUNNY   81  66  61 E10G20    29.78S
KENORA         PTSUNNY   79  66  65 SE15G26   29.71F
$$
                *** MANITOBA***

CITY           SKY/WX    TMP DP  RH WIND       PRES   REMARKS
BRANDON        CLOUDY    72  64  78 W3        29.69S
DAUPHIN        CLOUDY    72  68  88 VRB2      29.65F
ISLAND LAKE    CLOUDY    68  55  64 E10       29.92R
PILOT MOUND      N/A    N/A N/A N/A NW8G18      N/A
THE PAS        CLOUDY    64  54  68 E17G28    29.79F
THOMPSON       PTSUNNY   70  46  43 E8G17     29.94S
WINNIPEG       CLOUDY    79  66  65 E7        29.64F
LYNN LAKE      SUNNY     66  45  45 MISG      29.98F
CHURCHILL      MOSUNNY   61  50  67 N13       29.94S
GILLAM         PTSUNNY   70  46  43 CALM      29.94F
$$
                ***SASKATCHEWAN***

CITY           SKY/WX    TMP DP  RH WIND       PRES   REMARKS
ESTEVAN        PTSUNNY   73  43  33 W20G25    29.79S
KINDERSLEY     PTSUNNY   57  50  77 NW17G26   29.75R
LLOYDMINSTER   CLOUDY    57  52  82 N15G25    29.88R
PRINCE ALBERT  CLOUDY    59  55  88 E16G23    29.74R
REGINA         PTSUNNY   66  46  48 W16G24    29.77R
YORKTON        MOSUNNY   70  50  49 W13G18    29.74R   C1F1C2F2C3F3C4F4C5F5C6F6C7F7C8F8C9F9CaFaCbFbCcFcCdFdCe!


USA.gov is the U.S. government's official web portal to all federal, state and local government web resources and services.